Flag for Germany Weather past 2 weeks in Kiel, Schleswig-Holstein, Germany

Now
48 °F

Cool.


Feels Like: 44 °F
Forecast: 46 / 55 °F
Wind: 8 mph from Southwest

Location: Leuchtturm Kiel

Current Time: May 29, 2015 at 3:01:08 AM

Latest Report: May 29, 2015 at 2:00 AM


Visibility: N/A

Pressure: 29.87 "Hg

Humidity: 84%

Dew point: 43 °F

Location of KielLocation

Historic Weather in Kiel — Graph

°F

Kiel temperature yesterday

Maximum temperature yesterday: 56 °F (at 11:00 AM)
Minimum temperature yesterday: 50 °F (at 11:00 PM)
Average temperature yesterday: 53 °F

Past Weeks' High & Low Weather Summary

 TemperatureHumidityPressure
High61 °F (May 22, 6:00 PM)97% (May 25, 8:00 AM)30.27 "Hg (May 25, 8:00 AM)
Low44 °F (May 16, 3:00 AM)56% (May 17, 5:00 PM)29.50 "Hg (May 19, 3:00 AM)
Average51 °F77%29.99 "Hg
* Reported May 14 2:00 AM — May 29 2:00 AM, Kiel, Weather by CustomWeather, © 2015

Note: Actual official high and low records may vary slightly from our data, if they occured in-between our weather recording intervals... More about our weather records

Advertising

Kiel weather history for previous 24 hours

 ConditionsComfort  
Time TempWeatherWind HumidityBarometerVisibility
2:00 AM
Fri, May 29
48 °FCool.8 mph84%29.87 "HgN/A
1:00 AM48 °FCool.9 mph84%29.86 "HgN/A
11:00 PM
Thu, May 28
50 °FCool.8 mph81%29.85 "HgN/A
10:00 PM51 °FCool.12 mph76%29.84 "HgN/A
9:00 PM53 °FCool.10 mph71%29.82 "HgN/A
8:00 PM54 °FCool.13 mph66%29.81 "HgN/A
7:00 PM54 °FCool.14 mph65%29.80 "HgN/A
6:00 PM55 °FCool.16 mph62%29.79 "HgN/A
5:00 PM56 °FCool.13 mph63%29.79 "HgN/A
4:00 PM56 °FCool.15 mph63%29.79 "HgN/A
3:00 PM54 °FCool.7 mph84%29.79 "HgN/A
2:00 PM53 °FCool.14 mph90%29.79 "HgN/A
1:00 PM54 °FCool.13 mph84%29.78 "HgN/A
12:00 PM56 °FCool.13 mph75%29.78 "HgN/A
11:00 AM56 °FCool.13 mph71%29.78 "HgN/A
10:00 AM55 °FCool.14 mph68%29.79 "HgN/A
9:00 AM54 °FCool.13 mph69%29.80 "HgN/A
8:00 AM53 °FCool.15 mph69%29.80 "HgN/A
7:00 AM53 °FCool.10 mph73%29.82 "HgN/A
6:00 AM53 °FCool.10 mph72%29.84 "HgN/A
5:00 AM53 °FCool.10 mph72%29.85 "HgN/A
4:00 AM53 °FCool.12 mph70%29.88 "HgN/A
3:00 AM53 °FCool.12 mph72%29.91 "HgN/A
Weather by CustomWeather, © 2015

See weather overviewHow to use our weather pages